Time,TemperatureF,DewpointF,PressureIn,WindDirection,WindDirectionDegrees,WindSpeedMPH,WindSpeedGustMPH,Humidity,HourlyPrecipIn,Conditions,Clouds,dailyrainin,SoftwareType,DateUTC
2013-02-24 00:01:00,43.1,38.9,29.69,West,270,0.0,0.0,85,0.00,,---,0.00,VWS V12.08,2013-02-24 05:01:00,
2013-02-24 00:16:00,42.9,38.4,29.70,NW,315,0.0,0.0,84,0.00,,---,8.83,VWS V12.08,2013-02-24 05:16:00,
2013-02-24 00:20:00,42.6,37.8,29.70,WNW,292,0.0,0.0,83,0.00,,---,8.83,VWS V12.08,2013-02-24 05:20:00,
2013-02-24 00:32:00,42.6,37.8,29.70,NW,315,0.0,0.0,83,0.00,,---,8.83,VWS V12.08,2013-02-24 05:32:00,
2013-02-24 00:46:00,42.6,37.8,29.70,NW,315,0.0,0.0,83,0.00,,---,8.83,VWS V12.08,2013-02-24 05:46:00,
2013-02-24 01:02:00,42.0,37.2,29.71,WNW,292,0.0,0.0,83,0.00,,---,8.83,VWS V12.08,2013-02-24 06:02:00,
2013-02-24 01:22:00,41.7,36.9,29.71,WNW,292,0.0,0.0,83,0.00,,---,8.83,VWS V12.08,2013-02-24 06:22:00,
2013-02-24 01:41:00,41.1,36.3,29.71,WNW,292,0.0,0.0,83,0.00,,---,8.83,VWS V12.08,2013-02-24 06:41:00,
2013-02-24 02:02:00,40.8,36.0,29.72,WNW,292,0.0,0.0,83,0.00,,---,8.83,VWS V12.08,2013-02-24 07:02:00,
2013-02-24 02:16:00,40.4,35.7,29.72,WNW,292,0.0,0.0,83,0.00,,---,8.83,VWS V12.08,2013-02-24 07:16:00,
2013-02-24 02:20:00,40.2,35.5,29.72,WNW,292,0.0,0.0,83,0.00,,---,8.83,VWS V12.08,2013-02-24 07:20:00,
2013-02-24 02:32:00,40.1,35.4,29.72,WNW,292,0.0,0.0,83,0.00,,---,8.83,VWS V12.08,2013-02-24 07:32:00,
2013-02-24 02:40:00,39.7,35.0,29.72,WNW,292,0.0,0.0,83,0.00,,---,8.83,VWS V12.08,2013-02-24 07:40:00,
2013-02-24 02:56:00,39.7,35.0,29.72,WNW,292,0.0,0.0,83,0.00,,---,8.83,VWS V12.08,2013-02-24 07:56:00,
2013-02-24 03:01:00,39.5,34.8,29.72,WNW,292,0.0,0.0,83,0.00,,---,8.83,VWS V12.08,2013-02-24 08:01:00,
2013-02-24 03:16:00,39.0,34.3,29.72,WNW,292,0.0,0.0,83,0.00,,---,8.83,VWS V12.08,2013-02-24 08:16:00,
2013-02-24 03:20:00,39.0,34.3,29.72,WNW,292,0.0,0.0,83,0.00,,---,8.83,VWS V12.08,2013-02-24 08:20:00,
2013-02-24 03:32:00,39.0,34.0,29.72,NW,315,0.0,0.0,82,0.00,,---,8.83,VWS V12.08,2013-02-24 08:32:00,
2013-02-24 03:40:00,39.0,34.0,29.72,NW,315,0.0,0.0,82,0.00,,---,8.83,VWS V12.08,2013-02-24 08:40:00,
2013-02-24 03:51:00,39.0,34.0,29.71,NW,315,0.0,0.0,82,0.00,,---,8.83,VWS V12.08,2013-02-24 08:51:00,
2013-02-24 04:04:00,38.8,33.8,29.71,NW,315,0.0,0.0,82,0.00,,---,8.83,VWS V12.08,2013-02-24 09:04:00,
2013-02-24 04:21:00,38.4,33.4,29.72,NW,315,0.0,0.0,82,0.00,,---,8.83,VWS V12.08,2013-02-24 09:21:00,
2013-02-24 04:41:00,37.9,32.9,29.71,NW,315,0.0,0.0,82,0.00,,---,8.83,VWS V12.08,2013-02-24 09:41:00,
2013-02-24 05:01:00,37.9,32.9,29.72,NW,315,0.0,0.0,82,0.00,,---,8.83,VWS V12.08,2013-02-24 10:01:00,
2013-02-24 05:26:00,37.7,32.7,29.73,NW,315,0.0,0.0,82,0.00,,---,8.83,VWS V12.08,2013-02-24 10:26:00,
2013-02-24 05:31:00,37.5,32.5,29.73,NW,315,0.0,0.0,82,0.00,,---,8.83,VWS V12.08,2013-02-24 10:31:00,
2013-02-24 05:46:00,37.5,32.2,29.73,NW,315,0.0,0.0,81,0.00,,---,8.83,VWS V12.08,2013-02-24 10:46:00,
2013-02-24 06:07:00,37.4,32.1,29.74,WNW,292,0.0,0.0,81,0.00,,---,8.83,VWS V12.08,2013-02-24 11:07:00,
2013-02-24 06:26:00,37.2,31.6,29.74,WNW,292,0.0,0.0,80,0.00,,---,8.83,VWS V12.08,2013-02-24 11:26:00,
2013-02-24 06:31:00,36.8,30.9,29.74,WNW,292,0.0,0.0,79,0.00,,---,8.83,VWS V12.08,2013-02-24 11:31:00,
2013-02-24 06:46:00,36.6,30.4,29.75,WNW,292,0.0,0.0,78,0.00,,---,8.83,VWS V12.08,2013-02-24 11:46:00,
2013-02-24 07:07:00,36.5,30.3,29.75,West,270,0.0,0.0,78,0.00,,---,8.83,VWS V12.08,2013-02-24 12:07:00,
2013-02-24 07:26:00,36.3,29.5,29.76,NE,45,0.0,0.0,76,0.00,,---,8.83,VWS V12.08,2013-02-24 12:26:00,
2013-02-24 07:31:00,36.5,29.7,29.77,NNE,22,0.0,0.0,76,0.00,,---,8.83,VWS V12.08,2013-02-24 12:31:00,
2013-02-24 07:46:00,36.3,29.5,29.77,NNE,22,0.0,0.0,76,0.00,,---,8.83,VWS V12.08,2013-02-24 12:46:00,
2013-02-24 08:00:00,36.5,29.0,29.77,NNE,22,0.0,0.0,74,0.00,,---,8.83,VWS V12.08,2013-02-24 13:00:00,
2013-02-24 08:11:00,36.5,29.0,29.78,NNE,22,0.0,0.0,74,0.00,,---,8.83,VWS V12.08,2013-02-24 13:11:00,
2013-02-24 08:16:00,36.5,29.0,29.78,NNE,22,0.0,0.0,74,0.00,,---,8.83,VWS V12.08,2013-02-24 13:16:00,
2013-02-24 08:20:00,36.5,28.7,29.78,North,0,0.0,0.0,73,0.00,,---,8.83,VWS V12.08,2013-02-24 13:20:00,
2013-02-24 08:31:00,36.8,29.0,29.78,NNE,22,0.0,0.0,73,0.00,,---,8.83,VWS V12.08,2013-02-24 13:31:00,
2013-02-24 08:40:00,37.2,29.0,29.79,NW,315,0.0,0.0,72,0.00,,---,8.83,VWS V12.08,2013-02-24 13:40:00,
2013-02-24 08:52:00,37.7,29.5,29.78,NNE,22,0.0,0.0,72,0.00,,---,8.83,VWS V12.08,2013-02-24 13:52:00,
2013-02-24 09:00:00,38.1,29.5,29.79,NE,45,0.0,0.0,71,0.00,,---,8.83,VWS V12.08,2013-02-24 14:00:00,
2013-02-24 09:11:00,38.8,30.2,29.79,North,0,0.0,0.0,71,0.00,,---,8.83,VWS V12.08,2013-02-24 14:11:00,
2013-02-24 09:16:00,39.0,30.1,29.79,NE,45,0.0,0.0,70,0.00,,---,8.83,VWS V12.08,2013-02-24 14:16:00,
2013-02-24 09:20:00,39.3,30.4,29.79,NE,45,0.0,0.0,70,0.00,,---,8.83,VWS V12.08,2013-02-24 14:20:00,
2013-02-24 09:41:00,39.9,30.6,29.80,NNE,22,0.0,0.0,69,0.00,,---,8.83,VWS V12.08,2013-02-24 14:41:00,
2013-02-24 10:01:00,40.8,31.1,29.80,ENE,68,0.0,0.0,68,0.00,,---,8.83,VWS V12.08,2013-02-24 15:01:00,
2013-02-24 10:16:00,41.7,31.9,29.80,NE,45,0.0,0.0,68,0.00,,---,8.83,VWS V12.08,2013-02-24 15:16:00,
2013-02-24 10:20:00,42.0,32.2,29.81,ENE,68,0.0,0.0,68,0.00,,---,8.83,VWS V12.08,2013-02-24 15:20:00,
2013-02-24 10:31:00,42.6,32.8,29.81,NNE,22,0.0,0.0,68,0.00,,---,8.83,VWS V12.08,2013-02-24 15:31:00,
2013-02-24 10:46:00,43.1,32.9,29.81,NE,45,0.0,0.0,67,0.00,,---,8.83,VWS V12.08,2013-02-24 15:46:00,
2013-02-24 11:01:00,44.7,34.0,29.82,ENE,68,0.0,0.0,66,0.00,,---,8.83,VWS V12.08,2013-02-24 16:01:00,
2013-02-24 11:16:00,45.3,34.2,29.81,NNW,338,0.0,0.0,65,0.00,,---,8.83,VWS V12.08,2013-02-24 16:16:00,
2013-02-24 11:20:00,45.3,33.9,29.82,NE,45,0.0,0.0,64,0.00,,---,8.83,VWS V12.08,2013-02-24 16:20:00,
2013-02-24 11:31:00,46.0,34.5,29.82,NW,315,0.0,0.0,64,0.00,,---,8.83,VWS V12.08,2013-02-24 16:31:00,
2013-02-24 11:46:00,46.2,34.3,29.82,ENE,68,0.0,0.0,63,0.00,,---,8.83,VWS V12.08,2013-02-24 16:46:00,
2013-02-24 12:01:00,47.6,35.6,29.82,East,90,0.0,0.0,63,0.00,,---,8.83,VWS V12.08,2013-02-24 17:01:00,
2013-02-24 12:16:00,48.7,36.7,29.81,East,90,0.0,0.0,63,0.00,,---,8.83,VWS V12.08,2013-02-24 17:16:00,
2013-02-24 12:20:00,48.9,36.9,29.81,ENE,68,0.0,0.0,63,0.00,,---,8.83,VWS V12.08,2013-02-24 17:20:00,
2013-02-24 12:31:00,49.6,37.1,29.82,ENE,68,0.0,0.0,62,0.00,,---,8.83,VWS V12.08,2013-02-24 17:31:00,
2013-02-24 12:46:00,49.8,36.9,29.82,East,90,0.0,0.0,61,0.00,,---,8.83,VWS V12.08,2013-02-24 17:46:00,
2013-02-24 13:02:00,49.8,36.1,29.81,WNW,292,0.0,0.0,59,0.00,,---,8.83,VWS V12.08,2013-02-24 18:02:00,
2013-02-24 13:21:00,50.7,36.9,29.81,North,0,0.0,0.0,59,0.00,,---,8.83,VWS V12.08,2013-02-24 18:21:00,
2013-02-24 13:41:00,51.4,36.7,29.79,WSW,248,0.0,0.0,57,0.00,,---,8.83,VWS V12.08,2013-02-24 18:41:00,
2013-02-24 14:02:00,51.8,36.6,29.79,West,270,0.0,0.0,56,0.00,,---,8.83,VWS V12.08,2013-02-24 19:02:00,
2013-02-24 14:16:00,52.3,37.1,29.79,SW,225,0.0,0.0,56,0.00,,---,8.83,VWS V12.08,2013-02-24 19:16:00,
2013-02-24 14:20:00,52.3,37.1,29.79,SSW,202,0.0,0.0,56,0.00,,---,8.83,VWS V12.08,2013-02-24 19:20:00,
2013-02-24 14:31:00,52.5,36.8,29.79,SW,225,0.0,0.0,55,0.00,,---,8.83,VWS V12.08,2013-02-24 19:31:00,
2013-02-24 14:46:00,53.2,37.5,29.79,NNW,338,0.0,0.0,55,0.00,,---,8.83,VWS V12.08,2013-02-24 19:46:00,
2013-02-24 15:01:00,53.7,37.5,29.78,NE,45,0.0,0.0,54,0.00,,---,8.83,VWS V12.08,2013-02-24 20:01:00,
2013-02-24 15:16:00,54.1,37.8,29.78,NE,45,0.0,0.0,54,0.00,,---,8.83,VWS V12.08,2013-02-24 20:16:00,
2013-02-24 15:20:00,54.1,37.4,29.78,NE,45,0.0,0.0,53,0.00,,---,8.83,VWS V12.08,2013-02-24 20:20:00,
2013-02-24 15:31:00,53.7,37.0,29.77,East,90,0.0,0.0,53,0.00,,---,8.83,VWS V12.08,2013-02-24 20:31:00,
2013-02-24 15:46:00,53.7,37.0,29.77,ENE,68,0.0,0.0,53,0.00,,---,8.83,VWS V12.08,2013-02-24 20:46:00,
2013-02-24 16:01:00,53.7,36.5,29.77,NE,45,0.0,0.0,52,0.00,,---,8.83,VWS V12.08,2013-02-24 21:01:00,
2013-02-24 16:16:00,53.4,36.2,29.77,NE,45,0.0,0.0,52,0.00,,---,8.83,VWS V12.08,2013-02-24 21:16:00,
2013-02-24 16:20:00,53.2,36.5,29.77,NE,45,0.0,0.0,53,0.00,,---,8.83,VWS V12.08,2013-02-24 21:20:00,
2013-02-24 16:31:00,52.8,36.2,29.77,NE,45,0.0,0.0,53,0.00,,---,8.83,VWS V12.08,2013-02-24 21:31:00,
2013-02-24 16:46:00,52.5,35.9,29.77,NE,45,0.0,0.0,53,0.00,,---,8.83,VWS V12.08,2013-02-24 21:46:00,
2013-02-24 17:01:00,52.3,35.2,29.77,NE,45,0.0,0.0,52,0.00,,---,8.83,VWS V12.08,2013-02-24 22:01:00,
2013-02-24 17:16:00,51.6,35.0,29.77,East,90,0.0,0.0,53,0.00,,---,8.83,VWS V12.08,2013-02-24 22:16:00,
2013-02-24 17:20:00,51.6,35.0,29.77,East,90,0.0,0.0,53,0.00,,---,8.83,VWS V12.08,2013-02-24 22:20:00,
2013-02-24 17:31:00,51.4,35.3,29.78,East,90,0.0,0.0,54,0.00,,---,8.83,VWS V12.08,2013-02-24 22:31:00,
2013-02-24 17:46:00,51.0,35.0,29.78,ENE,68,0.0,0.0,54,0.00,,---,8.83,VWS V12.08,2013-02-24 22:46:00,
2013-02-24 18:01:00,50.5,34.5,29.78,ENE,68,0.0,0.0,54,0.00,,---,8.83,VWS V12.08,2013-02-24 23:01:00,
2013-02-24 18:16:00,49.8,34.3,29.78,ENE,68,0.0,0.0,55,0.00,,---,8.83,VWS V12.08,2013-02-24 23:16:00,
2013-02-24 18:20:00,49.8,34.3,29.78,ENE,68,0.0,0.0,55,0.00,,---,8.83,VWS V12.08,2013-02-24 23:20:00,
2013-02-24 18:31:00,49.2,34.2,29.78,ENE,68,0.0,0.0,56,0.00,,---,8.83,VWS V12.08,2013-02-24 23:31:00,
2013-02-24 18:46:00,49.1,34.1,29.79,ENE,68,0.0,0.0,56,0.00,,---,8.83,VWS V12.08,2013-02-24 23:46:00,
2013-02-24 19:01:00,48.3,33.3,29.79,ENE,68,0.0,0.0,56,0.00,,---,8.83,VWS V12.08,2013-02-25 00:01:00,
2013-02-24 19:16:00,48.0,33.1,29.79,ENE,68,0.0,0.0,56,0.00,,---,8.83,VWS V12.08,2013-02-25 00:16:00,
2013-02-24 19:20:00,48.0,33.1,29.79,ENE,68,0.0,0.0,56,0.00,,---,8.83,VWS V12.08,2013-02-25 00:20:00,
2013-02-24 19:37:00,47.8,32.9,29.79,ENE,68,0.0,0.0,56,0.00,,---,8.83,VWS V12.08,2013-02-25 00:37:00,
2013-02-24 19:40:00,47.6,32.7,29.79,ENE,68,0.0,0.0,56,0.00,,---,8.83,VWS V12.08,2013-02-25 00:40:00,
2013-02-24 19:56:00,47.4,33.0,29.79,ENE,68,0.0,0.0,57,0.00,,---,8.83,VWS V12.08,2013-02-25 00:56:00,
2013-02-24 20:01:00,47.4,33.0,29.79,ENE,68,0.0,0.0,57,0.00,,---,8.83,VWS V12.08,2013-02-25 01:01:00,
2013-02-24 20:16:00,47.1,32.7,29.79,NE,45,0.0,0.0,57,0.00,,---,8.83,VWS V12.08,2013-02-25 01:16:00,
2013-02-24 20:20:00,47.1,32.7,29.79,NE,45,0.0,0.0,57,0.00,,---,8.83,VWS V12.08,2013-02-25 01:20:00,
2013-02-24 20:31:00,47.1,31.8,29.79,NE,45,0.0,0.0,55,0.00,,---,8.83,VWS V12.08,2013-02-25 01:31:00,
2013-02-24 20:46:00,47.1,31.3,29.79,NE,45,0.0,0.0,54,0.00,,---,8.83,VWS V12.08,2013-02-25 01:46:00,
2013-02-24 21:01:00,46.9,30.7,29.79,NNE,22,0.0,0.0,53,0.00,,---,8.83,VWS V12.08,2013-02-25 02:01:00,
2013-02-24 21:16:00,46.9,30.2,29.79,NE,45,0.0,0.0,52,0.00,,---,8.83,VWS V12.08,2013-02-25 02:16:00,
2013-02-24 21:20:00,46.9,30.2,29.79,NE,45,0.0,0.0,52,0.00,,---,8.83,VWS V12.08,2013-02-25 02:20:00,
2013-02-24 21:31:00,46.7,30.5,29.79,NE,45,0.0,0.0,53,0.00,,---,8.83,VWS V12.08,2013-02-25 02:31:00,
2013-02-24 21:46:00,46.5,30.8,29.79,NE,45,0.0,0.0,54,0.00,,---,8.83,VWS V12.08,2013-02-25 02:46:00,
2013-02-24 22:01:00,46.0,29.8,29.79,NNE,22,0.0,0.0,53,0.00,,---,8.83,VWS V12.08,2013-02-25 03:01:00,
2013-02-24 22:16:00,45.6,29.0,29.79,NNE,22,0.0,0.0,52,0.00,,---,8.83,VWS V12.08,2013-02-25 03:16:00,
2013-02-24 22:20:00,45.5,28.4,29.79,NNE,22,0.0,0.0,51,0.00,,---,8.83,VWS V12.08,2013-02-25 03:20:00,
2013-02-24 22:32:00,45.1,28.1,29.78,NNE,22,0.0,0.0,51,0.00,,---,8.83,VWS V12.08,2013-02-25 03:32:00,
2013-02-24 22:40:00,44.9,27.4,29.78,NE,45,0.0,0.0,50,0.00,,---,8.83,VWS V12.08,2013-02-25 03:40:00,
2013-02-24 22:50:00,44.6,27.1,29.78,NNE,22,0.0,0.0,50,0.00,,---,8.83,VWS V12.08,2013-02-25 03:50:00,
2013-02-24 23:01:00,44.4,26.9,29.77,North,0,0.0,0.0,50,0.00,,---,8.83,VWS V12.08,2013-02-25 04:01:00,
2013-02-24 23:16:00,43.8,26.4,29.77,North,0,0.0,0.0,50,0.00,,---,8.83,VWS V12.08,2013-02-25 04:16:00,
2013-02-24 23:20:00,43.8,26.4,29.77,NNE,22,0.0,0.0,50,0.00,,---,8.83,VWS V12.08,2013-02-25 04:20:00,
2013-02-24 23:33:00,43.5,25.6,29.77,ENE,68,0.0,0.0,49,0.00,,---,8.83,VWS V12.08,2013-02-25 04:33:00,
2013-02-24 23:40:00,43.3,25.9,29.77,NE,45,0.0,0.0,50,0.00,,---,8.83,VWS V12.08,2013-02-25 04:40:00,
2013-02-24 23:51:00,43.1,25.7,29.77,NE,45,0.0,0.0,50,0.00,,---,8.83,VWS V12.08,2013-02-25 04:51:00,